This demonstration page uses our WeatherBlox Daily Observations layout. Learn more.

Left ArrowRight Arrow

38.20091, -84.87328

Hourly Observations for April 27, 2022

Temp ( °F °C ) Dew Point ( °F °C ) Humidity (%) Winds ( mph kmh ) Pressure ( in mb ) Visibility ( mi km ) Precip ( " mm )
12:53 am 00:53 Clear 46 7.8 32 0 58 58 WNW 3 6 30.30 1026 10 16 0.00 0.00
1:53 am 01:53 Clear 45 7.2 32 0 61 61 W 3 6 30.30 1026 10 16 0.00 0.00
2:53 am 02:53 Clear 41 5 33 0.6 73 73 NW 3 6 30.29 1026 10 16 0.00 0.00
3:53 am 03:53 Clear 42 5.6 32 0 68 68 Calm 30.29 1026 10 16 0.00 0.00
4:53 am 04:53 Clear 38 3.3 32 0 79 79 Calm 30.30 1026 10 16 0.00 0.00
5:53 am 05:53 Clear 39 3.9 31 -0.6 73 73 Calm 30.29 1026 10 16 0.00 0.00
6:53 am 06:53 Sunny 37 2.8 31 -0.6 79 79 Calm 30.29 1026 10 16 0.00 0.00
7:53 am 07:53 Sunny 40 4.4 34 1.1 79 79 Calm 30.31 1026 10 16 0.00 0.00
8:53 am 08:53 Sunny 49 9.4 34 1.1 56 56 NW 5 7 30.32 1027 10 16 0.00 0.00
9:53 am 09:53 Sunny 52 11.1 32 0 47 47 W 3 6 30.32 1027 10 16 0.00 0.00
10:53 am 10:53 Sunny 56 13.3 29 -1.7 36 36 VRB 6 9 30.32 1027 10 16 0.00 0.00
11:53 am 11:53 Sunny 59 15 31 -0.6 35 35 VRB 6 9 30.31 1026 10 16 0.00 0.00
12:53 pm 12:53 Sunny 62 16.7 32 0 32 32 VRB 5 7 30.29 1026 10 16 0.00 0.00
1:53 pm 13:53 Sunny 63 17.2 33 0.6 33 33 WNW 7 11 30.27 1025 10 16 0.00 0.00
2:53 pm 14:53 Sunny 65 18.3 33 0.6 31 31 NW 9 15 30.25 1024 10 16 0.00 0.00
3:53 pm 15:53 Sunny 67 19.4 32 0 27 27 NNW 12 19 30.22 1024 10 16 0.00 0.00
4:53 pm 16:53 Sunny 67 19.4 34 1.1 30 30 NNW 7 11 30.21 1023 10 16 0.00 0.00
5:53 pm 17:53 Sunny 67 19.4 33 0.6 28 28 NNW 9 15 30.20 1023 10 16 0.00 0.00
6:53 pm 18:53 Sunny 66 18.9 33 0.6 29 29 NW 5 7 30.19 1022 10 16 0.00 0.00
7:53 pm 19:53 Sunny 65 18.3 32 0 29 29 NNE 5 7 30.18 1022 10 16 0.00 0.00
8:53 pm 20:53 Clear 57 13.9 38 3.3 49 49 Calm 30.19 1022 10 16 0.00 0.00
9:53 pm 21:53 Clear 53 11.7 40 4.4 61 61 Calm 30.19 1022 10 16 0.00 0.00
10:53 pm 22:53 Clear 50 10 39 3.9 66 66 Calm 30.19 1022 10 16 0.00 0.00
11:53 pm 23:53 Clear 48 8.9 39 3.9 71 71 Calm 30.19 1022 10 16 0.00 0.00

Powered by AerisWeather